W4RLH Weather Reports


Display with metric or nautical units.
time (UTC)temp
F
wind
direction
speed
MPH
gust
MPH
rain 1hr
in
rain 24hr
in
rain mn
in
humidity
%
barometer
mb
20260502233059 53 0 0.0 0.0 0.00 0.24 0.24 32 1011.5
20260502231557 53 0 0.0 0.0 0.00 0.24 0.24 32 1011.3
20260502230037 53 0 0.0 0.0 0.00 0.24 0.24 34 1011.0
20260502224544 53 0 0.0 0.0 0.00 0.24 0.24 35 1011.2
20260502223047 53 0 0.0 0.0 0.00 0.24 0.24 39 1011.1
20260502221558 54 0 0.0 0.0 0.00 0.24 0.24 39 1011.1
20260502220044 54 0 0.0 0.0 0.00 0.24 0.24 44 1010.9
20260502214542 54 0 0.0 0.0 0.00 0.24 0.24 51 1010.8
20260502213052 54 0 0.0 2.0 0.00 0.24 0.24 55 1010.8
20260502211547 54 0 0.0 4.0 0.00 0.24 0.24 67 1010.8
20260502210043 54 360 0.0 3.0 0.00 0.24 0.24 69 1011.0
20260502204549 54 360 1.0 5.0 0.00 0.24 0.24 67 1011.0
20260502203048 54 360 0.0 4.0 0.00 0.24 0.24 67 1011.1
20260502201549 54 360 1.0 8.0 0.00 0.24 0.24 67 1011.0
20260502200045 54 360 1.0 6.0 0.00 0.24 0.24 66 1011.0
20260502194542 53 360 0.0 3.0 0.00 0.26 0.24 60 1011.1
20260502193044 53 360 2.0 8.0 0.00 0.26 0.24 56 1011.5
20260502191542 53 360 1.0 6.0 0.00 0.26 0.24 49 1011.5
20260502190043 54 0 0.0 3.0 0.00 0.26 0.24 38 1011.5
20260502184539 53 360 1.0 4.0 0.01 0.26 0.24 34 1011.6
20260502183046 53 0 0.0 5.0 0.01 0.26 0.24 32 1011.7
20260502181542 52 0 0.0 2.0 0.02 0.26 0.24 35 1012.1
20260502163043 52 360 1.0 4.0 0.04 0.22 0.20 35 1012.8
20260502161553 52 360 0.0 3.0 0.03 0.21 0.19 36 1013.0
20260502151545 53 360 0.0 5.0 0.03 0.18 0.16 30 1012.8
20260502123049 52 0 0.0 2.0 0.04 0.10 0.07 29 1011.4
20260502121546 52 0 0.0 1.0 0.04 0.09 0.06 29 1011.4
20260502114543 52 0 0.0 2.0 0.03 0.07 0.04 30 1011.5
20260502113042 52 0 0.0 2.0 0.02 0.06 0.03 28 1011.5
20260502111535 52 0 0.0 2.0 0.02 0.05 0.02 29 1011.8
20260502110042 53 0 0.0 3.0 0.02 0.05 0.02 27 1011.8
20260502104549 53 0 0.0 1.0 0.01 0.04 0.01 25 1011.8
20260502103040 53 0 0.0 2.0 0.01 0.04 0.01 23 1011.9
20260502101544 53 0 0.0 1.0 0.00 0.03 0.00 22 1011.7
20260502070043 52 0 0.0 0.0 0.00 0.03 0.00 24 1010.9
20260502064548 52 0 0.0 0.0 0.00 0.03 0.00 24 1011.0
20260502063040 52 0 0.0 0.0 0.00 0.03 0.00 25 1011.1
20260502061544 52 0 0.0 0.0 0.00 0.03 0.00 25 1011.3
20260502060045 52 0 0.0 0.0 0.00 0.03 0.00 26 1011.3
20260502054546 52 0 0.0 0.0 0.00 0.03 0.00 27 1011.5
20260502053043 52 0 0.0 0.0 0.00 0.03 0.00 27 1011.7
20260502051600 52 0 0.0 0.0 0.00 0.03 0.00 27 1011.8
20260502050039 52 0 0.0 0.0 0.00 0.03 0.00 27 1012.1
20260502044544 52 0 0.0 0.0 0.00 0.03 0.00 27 1012.1
20260502043045 52 0 0.0 0.0 0.00 0.03 0.00 28 1012.2
20260502041544 52 0 0.0 0.0 0.00 0.03 0.00 29 1012.2
20260502040042 52 0 0.0 0.0 0.00 0.03 0.00 29 1012.1
20260502034545 52 0 0.0 0.0 0.00 0.03 0.03 31 1012.1
20260502033051 52 0 0.0 0.0 0.00 0.03 0.03 30 1012.2
20260502031600 52 0 0.0 0.0 0.00 0.03 0.03 31 1012.4
20260502030045 52 0 0.0 0.0 0.00 0.03 0.03 32 1012.6
20260502024539 52 0 0.0 0.0 0.00 0.03 0.03 33 1012.7
20260502023043 52 0 0.0 0.0 0.00 0.03 0.03 34 1012.8
20260502021543 52 0 0.0 0.0 0.00 0.03 0.03 32 1012.8
20260502020044 52 0 0.0 0.0 0.00 0.03 0.03 34 1012.9
20260502014541 52 0 0.0 0.0 0.00 0.03 0.03 37 1012.8
20260502013040 52 0 0.0 0.0 0.00 0.03 0.03 38 1012.6
20260502011545 53 0 0.0 0.0 0.00 0.03 0.03 38 1012.7
20260502010042 53 0 0.0 0.0 0.00 0.03 0.03 38 1012.2
20260502004540 53 0 0.0 0.0 0.00 0.03 0.03 39 1012.4
20260502003040 53 0 0.0 0.0 0.00 0.03 0.03 42 1012.0
20260502001538 53 0 0.0 0.0 0.00 0.03 0.03 46 1012.0
20260502000043 53 0 0.0 0.0 0.00 0.03 0.03 47 1011.9
20260501234551 53 0 0.0 0.0 0.00 0.03 0.03 45 1012.0